GLO1028 SBSP-SBRJ

Flight info

Callsign GLO1028
Flight time N/A
Altitude 25000
Route NIBRU UZ171 KEVUN
Aircraft B38M/M-SDE1FGHILORVWXY/HB1

Departure

Time N/A
Airport Congonhas–Deputado Freitas Nobre Airport (SBSP)

Arrival

Time 2026-05-03 20:17
Airport Santos Dumont Airport (SBRJ)
Time Latitude Longitude Altitude Speed Heading
2026-05-03 20:15 -22.86061 -43.22177 1719 ft 145 kts 102°
2026-05-03 20:15 -22.86215 -43.21101 1416 ft 144 kts 103°
2026-05-03 20:15 -22.86382 -43.20033 1062 ft 143 kts 102°
2026-05-03 20:15 -22.86560 -43.18956 901 ft 148 kts 103°
2026-05-03 20:16 -22.86767 -43.17872 807 ft 146 kts 105°
2026-05-03 20:16 -22.87085 -43.16830 730 ft 145 kts 115°
2026-05-03 20:16 -22.87770 -43.16086 567 ft 142 kts 167°
2026-05-03 20:16 -22.88733 -43.16249 382 ft 143 kts 196°
2026-05-03 20:17 -22.89752 -43.16355 194 ft 150 kts 178°
2026-05-03 20:17 -22.90730 -43.16304 29 ft 134 kts 176°
2026-05-03 20:17 -22.91316 -43.16265 22 ft 33 kts 176°
2026-05-03 20:17 -22.91509 -43.16270 22 ft 15 kts 222°
2026-05-03 20:18 -22.91516 -43.16386 23 ft 16 kts 306°
2026-05-03 20:18 -22.91432 -43.16471 24 ft 18 kts 317°
2026-05-03 20:18 -22.91310 -43.16507 24 ft 20 kts 357°
2026-05-03 20:18 -22.91203 -43.16513 26 ft 6 kts 356°
2026-05-03 20:19 -22.91168 -43.16522 27 ft 2 kts 324°
2026-05-03 20:19 -22.91167 -43.16541 28 ft 5 kts 264°
2026-05-03 20:19 -22.91168 -43.16577 28 ft 4 kts 267°
2026-05-03 20:19 -22.91169 -43.16583 28 ft 0 kts 266°